Location: Newark
(41.8083°N, 72.2500°W)
Time: 12:33:23
(UTC+00:00)

Altair - Pass Details

Date: 08 December 2021
Orbit: 1501 x 1683 km, 47.2° (Epoch: 20 January)

Event Time Altitude Azimuth Distance (km) Brightness Sun altitude
Rises 23:43:08 0° 292° (WNW) 4,716 11.0 -26.2°
Reaches altitude 10° 23:46:14 10° 293° (WNW) 3,711 10.2 -26.8°
Maximum altitude 23:55:36 80° 21° (NNE) 1,530 7.3 -28.5°
Enters shadow 23:57:56 56° 96° (E) 1,748 7.3 -29.0°
